This is the latest recevied weather packets stored in our database for station/object KE8ZLU. If no packets are shown the sender has not sent any weather packets the latest 10 day(s).
| Time | Temp. | Humidity | Pressure | Rain* | Wind** | Luminosity | Snow |
|---|---|---|---|---|---|---|---|
| 1778002945 | 11.67° C | 67% | 1008.7 hPa | 0 mm | - | 432 W/m² | - |
| 1778002641 | 11.67° C | 72% | 1008.6 hPa | 0 mm | - | 370 W/m² | - |
| 1778002338 | 11.67° C | 71% | 1008.5 hPa | 0 mm | - | 368 W/m² | - |
| 1778002035 | 11.67° C | 71% | 1008.7 hPa | 0 mm | - | 362 W/m² | - |
| 1778001733 | 11.11° C | 75% | 1008.7 hPa | 0 mm | - | 325 W/m² | - |
| 1778001432 | 11.11° C | 74% | 1008.3 hPa | 0 mm | - | 341 W/m² | - |
| 1778001130 | 11.11° C | 76% | 1008.5 hPa | 0 mm | - | 293 W/m² | - |
| 1778000826 | 10.56° C | 74% | 1008.3 hPa | 0 mm | - | 259 W/m² | - |
| 1778000524 | 10.56° C | 78% | 1008.5 hPa | 0 mm | - | 288 W/m² | - |
| 1778000224 | 10.56° C | 78% | 1008.7 hPa | 0 mm | - | 288 W/m² | - |
| 1777999920 | 10.56° C | 82% | 1008.5 hPa | 0 mm | - | 315 W/m² | - |
| 1777999615 | 10.56° C | 82% | 1008.6 hPa | 0 mm | - | 315 W/m² | - |
| 1777999313 | 10.56° C | 82% | 1008.5 hPa | 0 mm | - | 315 W/m² | - |
| 1777999011 | 10.56° C | 81% | 1008.3 hPa | 0 mm | - | 315 W/m² | - |
| 1777998709 | 10.56° C | 81% | 1008.6 hPa | 0 mm | - | 344 W/m² | - |
| 1777998406 | 10.56° C | 82% | 1008.4 hPa | 0 mm | - | 386 W/m² | - |
| 1777998104 | 10° C | 82% | 1008.6 hPa | 0 mm | - | 588 W/m² | - |
| 1777997800 | 10° C | 85% | 1008.9 hPa | 0 mm | - | 365 W/m² | - |
| 1777997498 | 9.44° C | 84% | 1008.8 hPa | 0 mm | - | 254 W/m² | - |
| 1777997195 | 9.44° C | 84% | 1008.6 hPa | 0 mm | - | 254 W/m² | - |
| 1777996893 | 9.44° C | 84% | 1008.9 hPa | 0 mm | - | 254 W/m² | - |
| 1777996588 | 9.44° C | 84% | 1008.8 hPa | 0 mm | - | 254 W/m² | - |
| 1777996285 | 9.44° C | 84% | 1008.8 hPa | 0 mm | - | 254 W/m² | - |
| 1777995981 | 9.44° C | 84% | 1008.7 hPa | 1.78 mm | - | 254 W/m² | - |
| 1777995677 | 9.44° C | 84% | 1008.9 hPa | 1.78 mm | - | 223 W/m² | - |
* Rain latest hour (hover to see other rain measurements)
** Current wind speed in m/s (hover to see current wind gust speed)